Date String (YYYY-MM-DD hh:mm:ss) UTC,Instrument flags,Ambient pressure (hPa),Sample flow (lpm),Bypass flow (lpm),Sample temperature (°C),Ambient temperature (°C),ASC tube jacket temperature (°C),LED temperature (°C),Box temperature (°C),Sample RH (%),Span deviation,Mass concentration (μg/m³),Mass concentration (μg/m³),Mass concentration (μg/m³)
DateTimeUTC,F1_M11,P_M11,Q1_M11,Q2_M11,T1_M11,T2_M11,T3_M11,T4_M11,T5_M11,U1_M11,ZSPAN_M11,X0_M11,X2_M11,X1_M11
2022-07-26 06:00:00,,0825.7,5.00,0.00,29.4,28.2,00.0,38.2,31.4,31.8,0000.0,0016.29,0009.44,0008.16
2022-07-26 06:01:00,,0825.6,5.00,0.00,29.5,28.3,00.0,38.2,31.4,31.7,0000.0,0016.10,0009.35,0008.12
2022-07-26 06:02:00,,0825.7,4.99,0.00,29.5,28.4,00.0,38.2,31.4,31.5,0000.0,0016.13,0009.34,0008.10
2022-07-26 06:03:00,,0825.7,5.01,0.00,29.5,28.5,00.0,38.2,31.5,31.4,0000.0,0015.98,0009.32,0008.09
2022-07-26 06:04:00,,0825.7,5.01,0.00,29.6,28.5,00.0,38.2,31.5,31.3,0000.0,0016.11,0009.36,0008.08
2022-07-26 06:05:00,,0825.6,5.00,0.00,29.6,28.6,00.0,38.3,31.6,31.2,0000.0,0016.12,0009.33,0008.06
2022-07-26 06:06:00,,0825.7,5.01,0.00,29.6,28.7,00.0,38.3,31.6,31.2,0000.0,0016.94,0009.30,0008.04
2022-07-26 06:07:00,,0825.7,4.99,0.00,29.7,28.7,00.0,38.3,31.7,31.1,0000.0,0016.52,0009.27,0008.03
2022-07-26 06:08:00,,0825.7,5.00,0.00,29.7,28.7,00.0,38.3,31.7,31.0,0000.0,0016.52,0009.21,0008.01
2022-07-26 06:09:00,,0825.7,5.01,0.00,29.7,28.2,00.0,38.3,31.6,30.9,0000.0,0016.23,0009.19,0008.00
2022-07-26 06:10:00,,0825.7,4.99,0.00,29.7,27.7,00.0,38.3,31.5,30.9,0000.0,0015.82,0009.15,0008.00
2022-07-26 06:11:00,,0825.7,5.01,0.00,29.6,27.5,00.0,38.3,31.4,30.9,0000.0,0015.84,0009.20,0008.00
2022-07-26 06:12:00,,0825.7,4.99,0.00,29.6,27.5,00.0,38.3,31.4,31.0,0000.0,0015.98,0009.27,0008.00
2022-07-26 06:13:00,,0825.7,5.02,0.00,29.5,27.6,00.0,38.3,31.4,31.1,0000.0,0015.82,0009.25,0007.99
2022-07-26 06:14:00,,0825.7,5.01,0.00,29.5,27.7,00.0,38.3,31.3,31.0,0000.0,0015.82,0009.25,0007.99
2022-07-26 06:15:00,,0825.6,5.00,0.00,29.5,27.8,00.0,38.3,31.4,30.9,0000.0,0015.95,0009.24,0007.97
2022-07-26 06:16:00,,0825.6,4.99,0.00,29.5,28.0,00.0,38.3,31.4,30.9,0000.0,0016.06,0009.19,0007.97
2022-07-26 06:17:00,,0825.7,5.00,0.00,29.5,28.1,00.0,38.3,31.4,30.9,0000.0,0015.24,0009.16,0007.96
2022-07-26 06:18:00,,0825.7,5.00,0.00,29.6,28.2,00.0,38.3,31.4,30.8,0000.0,0015.15,0009.20,0007.96
2022-07-26 06:19:00,,0825.7,5.00,0.00,29.6,28.3,00.0,38.3,31.5,30.7,0000.0,0014.78,0009.19,0007.96
2022-07-26 06:20:00,,0825.7,5.00,0.00,29.6,28.4,00.0,38.3,31.5,30.7,0000.0,0014.60,0009.18,0007.95
2022-07-26 06:21:00,,0825.7,5.00,0.00,29.6,28.5,00.0,38.3,31.5,30.5,0000.0,0014.38,0009.19,0007.93
2022-07-26 06:22:00,,0825.7,5.00,0.00,29.7,28.6,00.0,38.4,31.6,30.3,0000.0,0014.29,0009.15,0007.92
2022-07-26 06:23:00,,0825.7,5.01,0.00,29.7,28.6,00.0,38.4,31.7,30.3,0000.0,0014.10,0009.06,0007.93
2022-07-26 06:24:00,,0825.7,5.01,0.00,29.7,28.7,00.0,38.4,31.7,29.8,0000.0,0014.08,0009.06,0007.93
2022-07-26 06:25:00,,0825.7,5.00,0.00,29.7,28.6,00.0,38.4,31.7,30.0,0000.0,0014.05,0009.04,0007.91
2022-07-26 06:26:00,,0825.7,4.99,0.00,29.7,27.9,00.0,38.3,31.6,30.1,0000.0,0013.84,0008.99,0007.92
2022-07-26 06:27:00,,0825.7,5.01,0.00,29.7,27.5,00.0,38.3,31.5,29.8,0000.0,0013.62,0009.02,0007.91
2022-07-26 06:28:00,,0825.7,4.99,0.00,29.6,27.4,00.0,38.3,31.4,28.8,0000.0,0013.83,0009.03,0007.91
2022-07-26 06:29:00,,0825.7,5.01,0.00,29.6,27.5,00.0,38.3,31.4,29.1,0000.0,0013.81,0008.99,0007.89
2022-07-26 06:30:00,,0825.7,4.99,0.00,29.6,27.6,00.0,38.3,31.3,27.2,0000.0,0014.19,0008.98,0007.85
2022-07-26 06:31:00,,0825.7,5.00,0.00,29.6,27.8,00.0,38.3,31.4,28.5,0000.0,0014.24,0008.94,0007.83
2022-07-26 06:32:00,,0825.7,5.00,0.00,29.6,27.9,00.0,38.3,31.4,25.1,0000.0,0014.34,0008.86,0007.79
2022-07-26 06:33:00,,0825.7,5.01,0.00,29.6,28.0,00.0,38.3,31.4,25.7,0000.0,0014.63,0008.79,0007.71
2022-07-26 06:34:00,,0825.7,5.00,0.00,29.6,28.1,00.0,38.3,31.4,25.0,0000.0,0015.22,0008.74,0007.63
2022-07-26 06:35:00,,0825.7,5.00,0.00,29.6,28.3,00.0,38.3,31.5,20.9,0000.0,0015.19,0008.57,0007.50
2022-07-26 06:36:00,,0825.7,4.99,0.00,29.6,28.4,00.0,38.3,31.5,19.2,0000.0,0015.10,0008.34,0007.32
2022-07-26 06:37:00,,0825.7,5.01,0.00,29.6,28.4,00.0,38.4,31.6,19.2,0000.0,0014.81,0008.15,0007.15
2022-07-26 06:38:00,,0825.7,4.99,0.00,29.7,28.5,00.0,38.4,31.6,19.9,0000.0,0014.47,0007.93,0006.99
2022-07-26 06:39:00,,0825.7,5.00,0.00,29.7,28.6,00.0,38.4,31.7,20.6,0000.0,0013.96,0007.74,0006.84
2022-07-26 06:40:00,,0825.7,4.99,0.00,29.7,28.7,00.0,38.4,31.7,20.9,0000.0,0014.21,0007.58,0006.70
2022-07-26 06:41:00,,0825.7,5.01,0.00,29.8,28.7,00.0,38.4,31.7,20.2,0000.0,0013.84,0007.42,0006.59
2022-07-26 06:42:00,,0825.7,5.00,0.00,29.8,28.3,00.0,38.4,31.7,20.2,0000.0,0013.47,0007.25,0006.45
2022-07-26 06:43:00,,0825.7,5.00,0.00,29.7,27.4,00.0,38.3,31.5,20.0,0000.0,0013.56,0007.14,0006.35
2022-07-26 06:44:00,,0825.7,5.00,0.00,29.6,26.9,00.0,38.3,31.3,18.9,0000.0,0013.39,0006.99,0006.25
2022-07-26 06:45:00,,0825.7,4.99,0.00,29.5,26.8,00.0,38.3,31.2,19.4,0000.0,0013.15,0006.86,0006.15
2022-07-26 06:46:00,,0825.6,5.01,0.00,29.5,26.9,00.0,38.2,31.2,19.5,0000.0,0013.00,0006.83,0006.10
2022-07-26 06:47:00,,0825.6,5.00,0.00,29.4,27.1,00.0,38.2,31.1,19.1,0000.0,0012.77,0006.84,0006.10
2022-07-26 06:48:00,,0825.8,5.00,0.00,29.4,27.3,00.0,38.2,31.1,19.0,0000.0,0012.99,0006.84,0006.09
2022-07-26 06:49:00,,0825.6,5.00,0.00,29.4,27.5,00.0,38.2,31.2,18.5,0000.0,0013.26,0006.78,0006.06
2022-07-26 06:50:00,,0825.6,4.99,0.00,29.4,27.6,00.0,38.2,31.2,18.7,0000.0,0013.27,0006.73,0006.02
2022-07-26 06:51:00,,0825.7,5.01,0.00,29.4,27.8,00.0,38.2,31.2,18.6,0000.0,0012.52,0006.68,0005.97
2022-07-26 06:52:00,,0825.6,5.00,0.00,29.4,27.9,00.0,38.2,31.3,18.7,0000.0,0012.58,0006.61,0005.93
2022-07-26 06:53:00,,0825.6,4.99,0.00,29.4,28.0,00.0,38.2,31.3,19.0,0000.0,0012.86,0006.59,0005.89
2022-07-26 06:54:00,,0825.6,5.01,0.00,29.5,28.1,00.0,38.2,31.4,18.7,0000.0,0012.20,0006.56,0005.86
2022-07-26 06:55:00,,0825.6,5.01,0.00,29.5,28.2,00.0,38.2,31.4,18.4,0000.0,0011.71,0006.58,0005.84
2022-07-26 06:56:00,,0825.6,4.99,0.00,29.5,28.3,00.0,38.2,31.5,18.4,0000.0,0011.21,0006.58,0005.83
2022-07-26 06:57:00,,0825.6,5.01,0.00,29.5,28.4,00.0,38.3,31.5,18.6,0000.0,0010.91,0006.50,0005.83
2022-07-26 06:58:00,,0825.5,4.99,0.00,29.6,28.5,00.0,38.3,31.5,19.1,0000.0,0010.93,0006.50,0005.83
2022-07-26 06:59:00,,0825.6,5.02,0.00,29.6,28.5,00.0,38.3,31.5,18.7,0000.0,0010.88,0006.48,0005.83
